STRATOSAT-TK 1 (RS52S)

Last updated on Wed May 14 2025 00:03:03 GMT+0000 (Coordinated Universal Time)

1 57167U 23091B 25133.60010761 .00032685 00000+0 86579-3 0 9997 2 57167 97.5548 196.2518 0008866 58.2424 301.9684 15.38253181103867
UTC large
Height (km)
Speed (km/s)
/
Latitude / Longitude
Inclination (degrees)
Orbital Period (minutes)
Azimuth
Elevation
Range (km)
Doppler Factor

Next 0 passes for location: London (51.5072 / 0.1276)

Sorry there are no passes over London.